Regional Weather Roundup
Issued by NWS

Home | Current Version | Previous Version | Graphics & Text | Print | Product List | Glossary On
Versions: 1 2 3 4 5 6 7 8 9 10 11 12 13 14 15 16 17 18 19 20 21 22 23 24 25 26 27 28 29 30 31 32 33 34 35 36 37 38 39 40 41 42 43 44 45 46 47 48 49 50
000
ASUS45 KBOU 221007
RWRCO

WEATHER ROUNDUP FOR COLORADO
NATIONAL WEATHER SERVICE DENVER/BOULDER CO
400 AM MDT FRI JUL 22 2016

NOTE: "FAIR" INDICATES FEW OR NO CLOUDS BELOW 12000 FEET WITH NO
SIGNIFICANT WEATHER AND/OR OBSTRUCTIONS TO VISIBILITY.

COZ001>005-013-030-031-221100-
...NORTHWEST COLORADO...

CITY           SKY/WX    TMP DP  RH WIND       PRES   REMARKS
CRAIG          FAIR      50  45  83 CALM      30.35S
HAYDEN         FAIR      55  46  71 E9        30.37S
MEEKER         FAIR      53  50  89 CALM      30.36S
MOUNT WERNER   NOT AVBL
STEAMBOAT SPGS FAIR      48  46  90 CALM      30.40S
WALDEN         FAIR      41  39  93 SE8       30.50S
$$

COZ006>008-011-221100-
...WEST CENTRAL VALLEYS...

CITY           SKY/WX    TMP DP  RH WIND       PRES   REMARKS
GRAND JUNCTION FAIR      67  51  56 E5        30.23S
MONTROSE       FAIR      62  55  77 S5        30.33F
EAGLE          FAIR      55  52  88 CALM      30.44R
RIFLE          FAIR      60  51  72 E6        30.31S
DELTA          FAIR      66  56  70 E5        30.30R
NUCLA          FAIR      61  54  77 CALM      30.37S
$$

COZ017>023-064>068-221100-
...SOUTHWEST COLORADO...

CITY           SKY/WX    TMP DP  RH WIND       PRES   REMARKS
DURANGO        FAIR      61  53  75 CALM      30.37S
CORTEZ         FAIR      62  55  77 NE7       30.32S
PAGOSA SPRINGS FAIR      58  50  76 CALM      30.46S
TELLURIDE      MOCLDY    58  50  76 SE7       30.57S
WOLF CREEK PAS FAIR      48  41  76 NW3       30.80F
$$

COZ009-010-012-014-032>034-037-058>063-221100-
...CENTRAL COLORADO...

CITY           SKY/WX    TMP DP  RH WIND       PRES   REMARKS
ASPEN          FAIR      51  50  96 SW3       30.46F
BUENA VISTA    FAIR      54  50  87 NW9       30.51S
COPPER MTN     FAIR      54  37  54 S18       30.77F
BERTHOUD PASS  FAIR      46  32  57 W6        30.81F
COTTONWOOD PAS FAIR      55  45  67 W6        30.62F
GUNNISON       FAIR      54  48  82 CALM      30.51S
KREMMLING      FOG       52  48  87 CALM      30.49R VSB 1/4
LEADVILLE      FAIR      44  42  93 E5        30.62S
MONARCH PASS   FAIR      46  41  81 SW8       30.87F
SALIDA         FAIR      57  52  85 W6        30.54S
SUNLIGHT       FAIR      52  46  82 CALM      30.70S
WILKERSON PASS FAIR      48  41  76 SW8       30.74S
$$

COZ069>075-221100-
...SAN LUIS VALLEY/SANGRE DE CRISTO MOUNTAINS...

CITY           SKY/WX    TMP DP  RH WIND       PRES   REMARKS
ALAMOSA        FAIR      57  49  74 CALM      30.45F
LA VETA PASS   FAIR      55  41  58 S3        30.64F
SAGUACHE       FAIR      57  48  72 N9        30.48S
$$

COZ035-036-038>040-221100-
...NORTHERN COLORADO FRONT RANGE...

CITY           SKY/WX    TMP DP  RH WIND       PRES   REMARKS
DENVER INTL AP MOCLDY    76  48  37 S14       30.22F
DMNS CITY PARK   N/A     72  50  45 S6        30.21F
AURORA         MOCLDY    69  51  51 SW8       30.25F
FRONT RANGE AP NOT AVBL
ERIE MUNI ARPT FAIR      71  51  50 CALM      30.20F
BOULDER MUN AP MOCLDY    72  54  53 SW6       30.21F
CENTENNIAL     FAIR      66  48  52 S6        30.27S
BROOMFIELD     FAIR      72  48  43 SW5       30.24F
LONGMONT       FAIR      69  53  56 CALM      30.21F
$$

COZ041-046-047-076>085-087-088-221100-
...PIKES PEAK/PALMER DIVIDE AND SOUTHERN FOOTHILLS...

CITY           SKY/WX    TMP DP  RH WIND       PRES   REMARKS
COLO. SPRINGS  FAIR      68  51  54 W7        30.31S
A. F. ACADEMY  FAIR      60  48  66 N9        30.33S
SCHRIEVER AFB  NOT AVBL
ELLICOTT       FAIR     N/A N/A N/A CALM      30.28F
FALCON         FAIR      64  48  54 NW5       30.36S
FORT CARSON    FAIR      67  51  57 NW10      30.26F
LIMON          FAIR      61  49  64 N5        30.23S
MONUMENT HILL  FAIR      59  46  63 SW9       30.38S
TRINIDAD       NOT AVBL
$$

COZ042>045-048>051-090-091-221100-
...NORTHEAST COLORADO...

CITY           SKY/WX    TMP DP  RH WIND       PRES   REMARKS
GREELEY ARPT   FAIR      66  61  82 SW3       30.19S
AKRON          FAIR      68  53  58 W9        30.16S
BURLINGTON     FAIR      75  58  55 NW14      30.10F
WRAY           NOT AVBL
STERLING       FAIR      64  61  88 S5        30.11S
HOLYOKE        FAIR      70  64  83 W8        30.09S
FORT MORGAN    FAIR      71  53  52 NW8       30.15F
$$

COZ086-089-092>099-221100-
...SOUTHEAST COLORADO...

CITY           SKY/WX    TMP DP  RH WIND       PRES   REMARKS
PUEBLO         FAIR      76  51  41 W3        30.17F
LA JUNTA       FAIR      75  50  41 NW8       30.13R
LAMAR          FAIR      67  58  72 CALM      30.07S
SPRINGFIELD      N/A     73  53  49 S10       30.16S
$$



USA.gov is the U.S. government's official web portal to all federal, state and local government web resources and services.